GW4106 Weather Reports


time (UTC)temp
F
wind
direction
speed
knots
gust
knots
rain 1hr
in
rain 24hr
in
rain mn
in
humidity
%
barometer
mb
20260505012000 69 169 1.7 2.6 0.00 0.00 0.00 60 1010.0
20260505011501 69 170 0.9 3.5 0.00 0.00 0.00 59 1010.1
20260505011002 70 178 1.7 5.2 0.00 0.00 0.00 58 1009.9
20260505010501 70 173 1.7 5.2 0.00 0.00 0.00 57 1010.0
20260505010004 70 190 1.7 5.2 0.00 0.00 0.00 57 1009.9
20260505005503 71 175 1.7 7.0 0.00 0.00 0.00 56 1009.9
20260505005004 71 215 1.7 7.0 0.00 0.00 0.00 56 1009.9
20260505004503 71 205 2.6 6.1 0.00 0.00 0.00 55 1009.9
20260505004002 71 183 3.5 7.8 0.00 0.00 0.00 55 1009.9
20260505003003 72 194 2.6 7.8 0.00 0.00 0.00 54 1009.8
20260505002002 72 180 2.6 9.6 0.00 0.00 0.00 53 1009.7
20260505001503 73 185 3.5 9.6 0.00 0.00 0.00 54 1009.6
20260505001003 73 165 2.6 8.7 0.00 0.00 0.00 54 1009.8
20260505000503 73 177 5.2 8.7 0.00 0.00 0.00 52 1009.8
20260505000002 74 182 1.7 7.8 0.00 0.00 0.00 53 1009.9
20260504235502 74 181 3.5 10.4 0.00 0.00 0.00 52 1010.0
20260504234501 74 201 2.6 9.6 0.00 0.00 0.00 50 1010.1
20260504234001 75 333 3.5 10.4 0.00 0.00 0.00 49 1010.1
20260504233500 75 168 4.3 10.4 0.00 0.00 0.00 49 1010.2
20260504231500 76 206 4.3 13.0 0.00 0.00 0.00 46 1010.1
20260504231001 76 249 3.5 16.5 0.00 0.00 0.00 46 1010.2
20260504230501 76 222 7.0 16.5 0.00 0.00 0.00 46 1010.2
20260504230003 76 264 4.3 11.3 0.00 0.00 0.00 47 1010.3
20260504225501 76 211 5.2 10.4 0.00 0.00 0.00 47 1010.3
20260504225002 76 262 5.2 13.9 0.00 0.00 0.00 47 1010.3
20260504224504 76 274 5.2 15.6 0.00 0.00 0.00 47 1010.3
20260504223502 77 184 5.2 13.9 0.00 0.00 0.00 47 1010.5
20260504222001 77 243 6.1 13.0 0.00 0.00 0.00 46 1010.4
20260504221501 77 287 5.2 14.8 0.00 0.00 0.00 45 1010.4
20260504221001 78 241 7.0 16.5 0.00 0.00 0.00 45 1010.5
20260504220502 78 194 9.6 16.5 0.00 0.00 0.00 44 1010.4
20260504220003 78 219 5.2 16.5 0.00 0.00 0.00 46 1010.3
20260504215502 78 223 6.1 16.5 0.00 0.00 0.00 45 1010.3
20260504215001 78 270 6.1 13.9 0.00 0.00 0.00 46 1010.5
20260504214502 78 241 8.7 13.9 0.00 0.00 0.00 46 1010.4
20260504212501 78 251 8.7 19.1 0.00 0.00 0.00 45 1010.5
20260504212001 78 255 9.6 19.1 0.00 0.00 0.00 45 1010.7
20260504211501 78 230 7.0 15.6 0.00 0.00 0.00 46 1010.6
20260504211001 78 181 6.1 15.6 0.00 0.00 0.00 46 1010.8
20260504210501 78 211 5.2 17.4 0.00 0.00 0.00 46 1010.7
20260504210002 78 233 7.0 18.2 0.00 0.00 0.00 45 1010.7
20260504205501 78 240 10.4 18.2 0.00 0.00 0.00 45 1010.7
20260504205002 78 275 7.8 19.1 0.00 0.00 0.00 44 1011.0
20260504204501 78 248 7.0 17.4 0.00 0.00 0.00 46 1010.9
20260504204001 79 223 3.5 17.4 0.00 0.00 0.00 46 1011.0
20260504203504 79 207 3.5 18.2 0.00 0.00 0.00 46 1011.0
20260504203002 79 165 7.0 15.6 0.00 0.00 0.00 44 1011.3
20260504202502 78 163 7.0 13.9 0.00 0.00 0.00 44 1011.3
20260504202001 78 219 7.8 13.9 0.00 0.00 0.00 44 1011.5
20260504201501 79 275 6.1 15.6 0.00 0.00 0.00 43 1011.4
20260504201003 78 194 6.1 21.7 0.00 0.00 0.00 44 1011.6
20260504200502 78 248 9.6 21.7 0.00 0.00 0.00 44 1011.7
20260504200002 78 250 3.5 14.8 0.00 0.00 0.00 47 1011.7
20260504195500 79 240 8.7 14.8 0.00 0.00 0.00 44 1012.0
20260504195000 78 169 7.0 12.2 0.00 0.00 0.00 44 1012.0
20260504194501 78 188 6.1 11.3 0.00 0.00 0.00 46 1012.0
20260504194027 78 219 3.5 17.4 0.00 0.00 0.00 47 1012.2
20260504193607 79 270 7.0 18.2 0.00 0.00 0.00 46 1012.7
20260504193018 79 248 7.8 16.5 0.00 0.00 0.00 45 1012.4
20260504192518 79 225 8.7 17.4 0.00 0.00 0.00 45 1012.5
20260504192038 79 293 6.1 13.9 0.00 0.00 0.00 46 1012.4
20260504191518 79 225 8.7 17.4 0.00 0.00 0.00 46 1012.7
20260504191018 79 270 6.1 15.6 0.00 0.00 0.00 48 1012.6
20260504190518 79 293 4.3 12.2 0.00 0.00 0.00 45 1012.7
20260504190018 79 270 5.2 11.3 0.00 0.00 0.00 48 1012.7
20260504185522 79 158 4.3 12.2 0.00 0.00 0.00 45 1012.7
20260504185018 78 225 7.8 13.9 0.00 0.00 0.00 46 1013.0
20260504184518 78 270 4.3 7.8 0.00 0.00 0.00 47 1012.7
20260504184018 79 270 7.0 14.8 0.00 0.00 0.00 48 1012.8
20260504183540 78 180 7.0 13.9 0.00 0.00 0.00 48 1013.0
20260504183018 79 248 6.1 13.0 0.00 0.00 0.00 47 1013.1
20260504182518 78 270 6.1 12.2 0.00 0.00 0.00 49 1012.9
20260504182018 77 248 5.2 10.4 0.00 0.00 0.00 52 1013.1
20260504181518 77 225 4.3 9.6 0.00 0.00 0.00 52 1013.2
20260504181019 77 225 4.3 9.6 0.00 0.00 0.00 51 1013.3
20260504180518 77 293 5.2 13.0 0.00 0.00 0.00 54 1013.3
20260504180018 77 225 6.1 9.6 0.00 0.00 0.00 52 1013.4
20260504175517 78 293 5.2 12.2 0.00 0.00 0.00 50 1013.4
20260504175018 78 225 7.0 12.2 0.00 0.00 0.00 51 1013.4
20260504174520 78 248 5.2 11.3 0.00 0.00 0.00 52 1013.4
20260504174020 78 203 5.2 14.8 0.00 0.00 0.00 51 1013.5
20260504173540 78 225 5.2 12.2 0.00 0.00 0.00 50 1013.4
20260504173020 77 248 6.1 12.2 0.00 0.00 0.00 54 1013.7
20260504172519 77 270 5.2 12.2 0.00 0.00 0.00 53 1013.6
20260504172020 77 270 6.1 11.3 0.00 0.00 0.00 58 1013.8
20260504171520 76 248 7.0 14.8 0.00 0.00 0.00 53 1013.8
20260504171020 76 225 6.1 13.0 0.00 0.00 0.00 54 1013.9
20260504170520 77 293 6.1 14.8 0.00 0.00 0.00 56 1013.8
20260504151019 70 225 4.3 9.6 0.00 0.00 0.00 69 1014.9
20260504150519 70 248 3.5 7.0 0.00 0.00 0.00 68 1014.9
20260504141019 67 270 4.3 9.6 0.00 0.00 0.00 72 1015.1
20260504140519 67 248 5.2 11.3 0.00 0.00 0.00 72 1015.1
20260504130519 63 225 2.6 5.2 0.00 0.00 0.00 77 1014.9
20260504110519 59 180 1.7 6.1 0.00 0.00 0.00 80 1014.0
20260504100518 60 0.0 1.7 0.00 0.00 0.00 77 1014.4
20260504081518 63 203 2.6 9.6 0.00 0.00 0.00 70 1014.7
20260504081018 63 180 2.6 9.6 0.00 0.00 0.00 70 1014.7
20260504080518 63 180 2.6 5.2 0.00 0.00 0.00 69 1014.7
20260504050520 58 158 2.6 4.3 0.00 0.00 0.00 75 1016.1
20260504045520 58 180 1.7 2.6 0.00 0.00 0.00 75 1016.1
20260504045020 59 180 0.9 3.5 0.00 0.00 0.00 73 1016.1
20260504044520 59 180 0.9 3.5 0.00 0.00 0.00 73 1016.1
20260504044020 59 180 0.9 3.5 0.00 0.00 0.00 73 1016.0
20260504043520 58 180 0.9 3.5 0.00 0.00 0.00 74 1015.9
20260504043040 59 180 0.9 2.6 0.00 0.00 0.00 73 1016.0
20260504042519 59 180 1.7 5.2 0.00 0.00 0.00 73 1016.0
20260504042101 58 180 1.7 5.2 0.00 0.00 0.00 74 1015.9
20260504041519 58 180 0.9 4.3 0.00 0.00 0.00 75 1015.8
20260504041040 58 180 0.9 3.5 0.00 0.00 0.00 74 1015.7
20260504040520 59 180 0.9 3.5 0.00 0.00 0.00 74 1015.8
20260504040120 59 180 1.7 4.3 0.00 0.00 0.00 74 1015.9
20260504035519 59 158 0.9 5.2 0.00 0.00 0.00 74 1015.9
20260504035020 58 203 0.9 4.3 0.00 0.00 0.00 75 1015.8
20260504034520 58 203 0.9 1.7 0.00 0.00 0.00 75 1016.0
20260504034020 59 203 0.9 2.6 0.00 0.00 0.00 74 1016.0
20260504033519 59 203 0.9 2.6 0.00 0.00 0.00 74 1016.1
20260504033019 59 203 0.9 2.6 0.00 0.00 0.00 73 1016.2
20260504032520 59 203 0.9 2.6 0.00 0.00 0.00 73 1016.1
20260504032020 59 203 0.9 3.5 0.00 0.00 0.00 73 1016.1
20260504031519 59 158 0.9 2.6 0.00 0.00 0.00 73 1016.1
20260504031019 60 135 0.9 2.6 0.00 0.00 0.00 72 1016.2
20260504030519 60 135 0.9 2.6 0.00 0.00 0.00 71 1016.2
20260504030039 60 135 0.9 4.3 0.00 0.00 0.00 71 1016.2
20260504025519 61 135 0.9 2.6 0.00 0.00 0.00 70 1016.2
20260504025019 61 135 0.9 3.5 0.00 0.00 0.00 70 1016.2
20260504024519 61 180 1.7 4.3 0.00 0.00 0.00 70 1016.3
20260504024019 61 180 0.9 2.6 0.00 0.00 0.00 70 1016.1
20260504023600 61 180 0.9 2.6 0.00 0.00 0.00 70 1016.0
20260504023019 61 180 0.9 3.5 0.00 0.00 0.00 70 1016.0
20260504022519 61 225 0.9 1.7 0.00 0.00 0.00 70 1016.0
20260504022019 61 225 0.9 2.6 0.00 0.00 0.00 72 1015.9
20260504021519 61 0.0 0.9 0.00 0.00 0.00 73 1015.9
20260504021100 61 0.0 1.7 0.00 0.00 0.00 73 1015.9
20260504020519 61 0.0 0.9 0.00 0.00 0.00 72 1015.9
20260504020019 62 225 0.9 2.6 0.00 0.00 0.00 70 1015.9
20260504015519 62 225 0.9 1.7 0.00 0.00 0.00 69 1015.8
20260504015019 62 270 0.9 3.5 0.00 0.00 0.00 68 1015.8
20260504014519 62 270 0.9 2.6 0.00 0.00 0.00 70 1015.8
20260504014019 63 293 0.9 3.5 0.00 0.00 0.00 70 1015.8
20260504013519 62 0.0 0.9 0.00 0.00 0.00 69 1015.8
20260504013019 63 0.0 1.7 0.00 0.00 0.00 66 1015.7
20260504012519 63 293 0.9 1.7 0.00 0.00 0.00 66 1015.6